This is the latest recevied weather packets stored in our database for station/object N5XJB. If no packets are shown the sender has not sent any weather packets the latest 1 day(s).
| Time | Temp. | Humidity | Pressure | Rain* | Wind** | Luminosity | Snow |
|---|---|---|---|---|---|---|---|
| 1778090208 | 29.44° C | 77% | 1011.4 hPa | 0 mm | - | 391 W/m² | - |
| 1778089905 | 29.44° C | 77% | 1011.4 hPa | 0 mm | - | 239 W/m² | - |
| 1778089294 | 29.44° C | 78% | 1011.7 hPa | 0 mm | - | 245 W/m² | - |
| 1778086564 | 28.33° C | 80% | 1011.7 hPa | 0 mm | - | 276 W/m² | - |
| 1778086260 | 28.33° C | 80% | 1011.7 hPa | 0 mm | - | 275 W/m² | - |
| 1778084434 | 28.33° C | 81% | 1011.4 hPa | 0 mm | - | 171 W/m² | - |
| 1778083526 | 27.78° C | 83% | 1011.4 hPa | 0 mm | - | 231 W/m² | - |
| 1778083223 | 27.22° C | 84% | 1011.4 hPa | 0 mm | - | 177 W/m² | - |
| 1778081818 | 27.22° C | 84% | 1011.4 hPa | 0 mm | - | 57 W/m² | - |
| 1778081212 | 27.78° C | 84% | 1011.4 hPa | 0 mm | - | 152 W/m² | - |
| 1778079092 | 27.22° C | 83% | 1011 hPa | 0 mm | - | 190 W/m² | - |
| 1778078790 | 27.22° C | 85% | 1010.7 hPa | 0 mm | - | 217 W/m² | - |
| 1778078486 | 27.22° C | 85% | 1010.7 hPa | 0 mm | - | 212 W/m² | - |
| 1778077278 | 26.11° C | 89% | 1010.4 hPa | 0 mm | - | 136 W/m² | - |
| 1778076975 | 26.11° C | 89% | 1010.4 hPa | 0 mm | - | 181 W/m² | - |
| 1778075157 | 25.56° C | 91% | 1010.7 hPa | 0 mm | - | 99 W/m² | - |
| 1778073642 | 25.56° C | 93% | 1010.7 hPa | 0 mm | - | 45 W/m² | - |
| 1778073035 | 25.56° C | 93% | 1010.7 hPa | 0 mm | - | 56 W/m² | - |
| 1778072732 | 25.56° C | 93% | 1010.7 hPa | 0 mm | - | 68 W/m² | - |
| 1778071825 | 25° C | 94% | 1010.4 hPa | 0 mm | - | 50 W/m² | - |
| 1778071523 | 25° C | 94% | 1010.7 hPa | 0 mm | - | 49 W/m² | - |
| 1778070011 | 24.44° C | 95% | 1010.4 hPa | 0 mm | - | 21 W/m² | - |
| 1778069708 | 24.44° C | 95% | 1010.7 hPa | 0 mm | - | 14 W/m² | - |
| 1778068497 | 24.44° C | 96% | 1010 hPa | 0 mm | - | 7 W/m² | - |
| 1778068195 | 23.89° C | 96% | 1010.4 hPa | 0 mm | - | 4 W/m² | - |
* Rain latest hour (hover to see other rain measurements)
** Current wind speed in m/s (hover to see current wind gust speed)